Location: Waco, TX
(31.5480°N, 97.1670°W)
Time: 21:24:58
(UTC-06:00)

ISS - Pass Details

Date: 11 February 2018
Orbit: 403 x 407 km, 51.6° (Epoch: 18 February)

Event Time Altitude Azimuth Distance (km) Brightness Sun altitude
Rises 18:35:51 0° 332° (NNW) 2,316 0.2 -5.7°
Reaches altitude 10° 18:38:37 10° 357° (N) 1,455 -1.1 -6.3°
Maximum altitude 18:40:34 15° 34° (NE) 1,202 -1.9 -6.7°
Drops below altitude 10° 18:42:30 10° 71° (ENE) 1,453 -1.7 -7.1°
Enters shadow 18:42:44 - 74° (ENE) 1,510 -1.6 -7.1°
Sets 18:45:15 0° 96° (E) 2,310 - -7.6°
